Regional Weather Roundup
Issued by NWS

Home | Current Version | Previous Version | Graphics & Text | Print | Product List | Glossary On
Versions: 1 2 3 4 5 6 7 8 9 10 11 12 13 14 15 16 17 18 19 20 21 22 23 24 25 26 27 28 29 30 31 32 33 34 35 36 37 38 39 40 41 42 43 44 45 46 47 48 49 50
000
ASUS43 KFSD 262302
RWRSD

WEATHER ROUNDUP FOR SOUTH DAKOTA
NATIONAL WEATHER SERVICE SIOUX FALLS SD
500 PM CST MON JAN 26 2015

NOTE: "FAIR" INDICATES FEW OR NO CLOUDS BELOW 12,000 FEET WITH NO
SIGNIFICANT WEATHER AND/OR OBSTRUCTIONS TO VISIBILITY.


SDZ001>005-009-010-012>017-270000-
NORTHWEST AND NORTH CENTRAL SOUTH DAKOTA

CITY           SKY/WX    TMP DP  RH WIND       PRES   REMARKS
BUFFALO          N/A     60  33  36 W9        29.92S
FAITH            N/A     57  30  35 N3        29.98F
MOBRIDGE       CLEAR     48  34  58 N6        29.96R
$$

SDZ012>016-024>037-041>051-057-063-072>074-270000-
SOUTHWEST AND SOUTH CENTRAL SOUTH DAKOTA

CITY           SKY/WX    TMP DP  RH WIND       PRES   REMARKS
RAPID CTY ARPT CLEAR     63  30  28 N8        30.01S
PIERRE         PTCLDY    54  29  38 W5        29.98S
CUSTER         CLEAR     57  24  28 W10       30.11S
PHILIP         CLEAR     61  31  32 N6        29.99F
PINE RIDGE     CLEAR     61  33  35 CALM      30.05S
WINNER         FAIR      57  32  38 N7        30.01R
$$

SDZ004>011-016>023-039-040-270000-
NORTHEAST SOUTH DAKOTA

CITY           SKY/WX    TMP DP  RH WIND       PRES   REMARKS
ABERDEEN       CLEAR     43  34  70 NW15      29.98R
WATERTOWN      CLEAR     39  33  79 NW12      29.92R
SISSETON         N/A     39  33  79 N13       29.91R
$$

SDZ017-020-022-023-036>040-048>070-270000-
SOUTHEAST SOUTH DAKOTA

CITY           SKY/WX    TMP DP  RH WIND       PRES   REMARKS
SIOUX FALLS    PTCLDY    44  36  73 NW13      29.94R
HURON          CLEAR     42  35  76 NW8       29.98R
MITCHELL       CLEAR     47  36  65 N8        29.99R
YANKTON        CLEAR     50  36  57 NW10      29.99R
$$

ABBREVIATIONS USED IN REMARKS
   TC - TEMPERATURE IN CELSIUS
  WCI - WIND CHILL INDEX
   HX - HEAT INDEX
  VSB - VISIBILITY




USA.gov is the U.S. government's official web portal to all federal, state and local government web resources and services.